KD2RHT-13 Weather Reports


Display with metric or nautical units.
time (UTC)temp
F
wind
direction
speed
MPH
gust
MPH
rain 1hr
in
rain 24hr
in
rain mn
in
humidity
%
barometer
mb
20260509070224 38 156 0.0 0.0 0.00 0.00 0.00 96 1012.1
20260509065720 37 154 0.0 0.0 0.00 0.00 0.00 96 1012.1
20260509065216 37 157 0.0 0.0 0.00 0.00 0.00 96 1012.4
20260509064713 37 155 0.0 0.0 0.00 0.00 0.00 96 1012.1
20260509064211 37 157 0.0 0.0 0.00 0.00 0.00 96 1012.1
20260509063708 37 158 0.0 0.0 0.00 0.00 0.00 95 1012.1
20260509063203 38 155 0.0 0.0 0.00 0.00 0.00 95 1012.1
20260509062701 38 155 0.0 0.0 0.00 0.00 0.00 96 1012.4
20260509062158 38 154 0.0 0.0 0.00 0.00 0.00 96 1012.1
20260509061655 38 153 0.0 0.0 0.00 0.00 0.00 96 1012.4
20260509061153 38 154 0.0 0.0 0.00 0.00 0.00 97 1012.7
20260509060650 38 152 0.0 0.0 0.00 0.00 0.00 97 1012.4
20260509060146 38 154 0.0 0.0 0.00 0.00 0.00 97 1012.7
20260509055641 38 152 0.0 0.0 0.00 0.00 0.00 97 1012.7
20260509055137 38 158 0.0 0.0 0.00 0.00 0.00 98 1012.7
20260509054634 38 157 0.0 0.0 0.00 0.00 0.00 99 1013.1
20260509054132 38 157 0.0 0.0 0.00 0.00 0.00 99 1012.7
20260509053630 38 157 0.0 0.0 0.00 0.00 0.00 99 1012.7
20260509053127 38 154 0.0 0.0 0.00 0.00 0.00 99 1012.7
20260509052625 37 155 0.0 0.0 0.00 0.00 0.00 99 1013.1
20260509052122 37 152 0.0 0.0 0.00 0.00 0.00 99 1013.1
20260509051620 37 154 0.0 0.0 0.00 0.00 0.00 99 1012.7
20260509051117 37 153 0.0 0.0 0.00 0.00 0.00 99 1013.1
20260509050614 38 155 0.0 0.0 0.00 0.00 0.00 99 1013.1
20260509050110 38 152 0.0 0.0 0.00 0.00 0.00 99 1013.1
20260509045608 38 151 0.0 0.0 0.00 0.00 0.00 99 1013.1
20260509045104 37 152 0.0 0.0 0.00 0.00 0.00 98 1013.1
20260509044602 38 152 0.0 0.0 0.00 0.00 0.00 98 1013.1
20260509044059 38 152 0.0 0.0 0.00 0.00 0.00 98 1013.1
20260509043555 37 152 0.0 0.0 0.00 0.00 0.00 98 1013.1
20260509043051 37 152 0.0 0.0 0.00 0.00 0.00 97 1013.5
20260509042548 37 152 0.0 0.0 0.00 0.00 0.00 97 1013.5
20260509042044 37 152 0.0 0.0 0.00 0.00 0.00 97 1013.5
20260509041540 37 152 0.0 0.0 0.00 0.00 0.00 97 1013.1
20260509041038 38 152 0.0 0.0 0.00 0.00 0.00 96 1013.1
20260509040536 38 152 0.0 0.0 0.00 0.00 0.00 96 1013.1
20260509040033 38 153 0.0 0.0 0.00 0.14 0.14 96 1013.1
20260509035530 38 153 0.0 0.0 0.00 0.14 0.14 95 1013.1
20260509035026 39 153 0.0 0.0 0.00 0.14 0.14 95 1013.5
20260509034525 39 152 0.0 0.0 0.00 0.14 0.14 95 1013.5
20260509034022 39 152 0.0 0.0 0.00 0.14 0.14 95 1013.1
20260509033518 38 155 0.0 0.0 0.00 0.14 0.14 94 1013.1
20260509033015 39 155 0.0 0.0 0.00 0.14 0.14 94 1013.1
20260509032512 39 155 0.0 0.0 0.00 0.14 0.14 94 1013.1
20260509032009 39 157 0.0 0.0 0.00 0.14 0.14 94 1013.1
20260509031507 39 152 0.0 0.0 0.00 0.14 0.14 93 1013.5
20260509031004 39 152 0.0 0.0 0.00 0.14 0.14 93 1013.5
20260509030502 39 152 0.0 0.0 0.00 0.14 0.14 92 1013.5
20260509025959 39 152 0.0 0.0 0.00 0.14 0.14 92 1013.5
20260509025454 39 153 0.0 0.0 0.00 0.14 0.14 91 1013.9
20260509024950 39 153 0.0 0.0 0.00 0.14 0.14 92 1013.1
20260509024446 39 153 0.0 0.0 0.00 0.14 0.14 90 1013.5
20260509023943 39 154 0.0 0.0 0.00 0.14 0.14 88 1013.5
20260509023441 40 154 0.0 0.0 0.00 0.14 0.14 88 1013.5
20260509022937 40 154 0.0 0.0 0.00 0.14 0.14 88 1013.5
20260509022434 40 152 0.0 0.0 0.00 0.14 0.14 87 1013.9
20260509021932 41 152 0.0 0.0 0.00 0.14 0.14 87 1013.5
20260509021428 41 152 0.0 0.0 0.00 0.14 0.14 86 1013.5
20260509020926 41 152 0.0 0.0 0.00 0.14 0.14 86 1013.5
20260509020424 41 152 0.0 0.0 0.00 0.14 0.14 86 1013.5
20260509015921 41 152 0.0 0.0 0.00 0.14 0.14 86 1013.5
20260509015420 41 152 0.0 0.0 0.00 0.14 0.14 84 1013.5
20260509014916 41 155 0.0 0.0 0.00 0.14 0.14 82 1013.5
20260509014413 41 155 0.0 0.0 0.00 0.14 0.14 81 1013.5
20260509013909 41 155 0.0 0.0 0.00 0.14 0.14 80 1013.1
20260509013406 42 155 0.0 0.0 0.00 0.14 0.14 79 1013.5
20260509012901 42 155 0.0 0.0 0.00 0.14 0.14 79 1013.1
20260509012358 43 155 0.0 0.0 0.00 0.14 0.14 78 1013.1
20260509011856 44 155 0.0 0.0 0.00 0.14 0.14 77 1013.1
20260509011353 43 149 0.0 0.0 0.00 0.14 0.14 76 1013.1
20260509010851 43 153 0.0 0.0 0.00 0.14 0.14 75 1013.1
20260509010348 43 151 0.0 0.0 0.00 0.14 0.14 74 1012.7
20260509005845 44 153 0.0 0.0 0.00 0.14 0.14 72 1012.7
20260509005343 45 153 0.0 0.0 0.00 0.14 0.14 70 1012.7
20260509004838 46 153 0.0 0.0 0.00 0.14 0.14 68 1012.7
20260509004334 47 151 0.0 0.0 0.00 0.14 0.14 68 1012.7
20260509003832 47 151 0.0 0.0 0.00 0.14 0.14 68 1012.7
20260509003330 47 140 0.0 0.0 0.00 0.14 0.14 67 1012.7
20260509002827 47 155 0.0 0.0 0.00 0.14 0.14 67 1012.7
20260509002324 48 156 0.0 0.0 0.00 0.14 0.14 66 1012.4
20260509001822 48 155 0.0 0.0 0.00 0.14 0.14 64 1012.4
20260509001317 49 152 0.0 0.0 0.00 0.14 0.14 64 1012.4
20260509000815 50 151 0.0 0.0 0.00 0.14 0.14 62 1012.4
20260509000313 50 152 0.0 0.0 0.00 0.14 0.14 61 1012.1
20260508235809 50 153 0.0 0.0 0.00 0.14 0.14 59 1012.1
20260508235307 51 154 0.0 0.0 0.00 0.14 0.14 57 1012.1
20260508234803 52 155 0.0 0.0 0.00 0.14 0.14 56 1012.1
20260508234259 52 151 0.0 0.0 0.00 0.14 0.14 54 1012.1
20260508233758 53 155 0.0 0.0 0.00 0.14 0.14 52 1012.1
20260508233257 53 155 0.0 1.0 0.00 0.14 0.14 50 1012.1
20260508232753 53 158 0.0 0.0 0.00 0.14 0.14 51 1012.1
20260508232250 54 162 0.0 0.0 0.00 0.14 0.14 49 1012.1
20260508231748 54 173 0.0 0.0 0.00 0.14 0.14 51 1012.1
20260508231244 54 161 0.0 0.0 0.00 0.14 0.14 49 1012.1
20260508230741 54 167 0.0 0.0 0.00 0.14 0.14 47 1012.1
20260508230237 54 91 1.0 1.0 0.00 0.14 0.14 47 1012.1
20260508225735 54 161 0.0 0.0 0.00 0.14 0.14 49 1012.1
20260508225231 54 157 0.0 0.0 0.00 0.14 0.14 47 1012.1
20260508224729 54 171 0.0 0.0 0.00 0.14 0.14 47 1012.1
20260508224227 54 159 0.0 0.0 0.00 0.14 0.14 46 1012.1
20260508223724 55 193 1.0 1.0 0.00 0.14 0.14 48 1012.4
20260508223221 55 160 0.0 0.0 0.00 0.14 0.14 46 1012.1
20260508222719 55 164 0.0 0.0 0.00 0.14 0.14 47 1012.4
20260508222216 55 150 0.0 0.0 0.00 0.14 0.14 46 1012.1
20260508221712 55 167 0.0 1.0 0.00 0.14 0.14 48 1012.1
20260508221208 55 117 2.0 2.0 0.00 0.14 0.14 47 1012.1
20260508220704 55 160 0.0 1.0 0.00 0.14 0.14 47 1012.4
20260508220201 55 141 1.0 1.0 0.00 0.14 0.14 45 1012.1
20260508215658 55 297 3.0 5.0 0.00 0.14 0.14 46 1012.4
20260508215154 56 22 3.0 3.0 0.00 0.14 0.14 49 1012.4
20260508214651 55 187 2.0 2.0 0.00 0.14 0.14 51 1012.4
20260508214149 56 164 0.0 0.0 0.00 0.14 0.14 56 1012.4
20260508213645 56 241 1.0 2.0 0.00 0.14 0.14 56 1012.4
20260508213141 56 191 0.0 0.0 0.00 0.14 0.14 51 1012.4
20260508212638 56 256 1.0 1.0 0.00 0.14 0.14 56 1012.4
20260508212135 55 167 2.0 3.0 0.00 0.14 0.14 55 1012.4
20260508211635 55 172 2.0 2.0 0.00 0.14 0.14 55 1012.4
20260508211131 55 163 1.0 2.0 0.00 0.14 0.14 57 1012.4
20260508210628 55 292 1.0 2.0 0.00 0.14 0.14 56 1012.4
20260508210126 55 157 1.0 1.0 0.00 0.14 0.14 55 1012.4
20260508205623 55 162 0.0 1.0 0.00 0.14 0.14 56 1012.7
20260508205119 55 134 0.0 0.0 0.00 0.14 0.14 55 1012.7
20260508204615 56 132 2.0 2.0 0.00 0.14 0.14 55 1013.1
20260508204112 56 251 2.0 2.0 0.00 0.14 0.14 58 1012.7
20260508203608 55 170 0.0 0.0 0.00 0.14 0.14 62 1012.4
20260508203104 54 144 1.0 1.0 0.00 0.14 0.14 58 1012.7
20260508202600 54 211 1.0 1.0 0.00 0.14 0.14 57 1012.7
20260508202058 56 343 3.0 3.0 0.00 0.14 0.14 56 1012.7
20260508201554 57 200 3.0 3.0 0.00 0.14 0.14 55 1012.4
20260508201051 57 164 0.0 0.0 0.00 0.14 0.14 59 1012.7
20260508200548 59 275 4.0 6.0 0.00 0.14 0.14 54 1012.7
20260508200043 58 180 1.0 2.0 0.00 0.14 0.14 54 1013.1
20260508195541 56 193 2.0 2.0 0.00 0.14 0.14 59 1013.1
20260508195037 53 174 0.0 0.0 0.00 0.14 0.14 60 1013.1
20260508194534 54 212 1.0 2.0 0.00 0.14 0.14 61 1013.1
20260508194031 54 201 3.0 3.0 0.00 0.14 0.14 61 1013.1
20260508193527 54 190 3.0 3.0 0.00 0.14 0.14 61 1013.5
20260508193024 54 187 1.0 2.0 0.00 0.14 0.14 60 1013.1
20260508192521 56 183 3.0 3.0 0.00 0.14 0.14 61 1013.1
20260508192018 56 160 1.0 1.0 0.00 0.14 0.14 59 1013.1
20260508191515 56 163 1.0 1.0 0.00 0.14 0.14 62 1013.1
20260508191011 56 198 3.0 3.0 0.00 0.14 0.14 62 1013.1
20260508190509 54 153 0.0 0.0 0.00 0.14 0.14 66 1013.5
20260508190005 56 172 0.0 1.0 0.00 0.14 0.14 64 1013.1
20260508185503 56 198 1.0 1.0 0.00 0.14 0.14 64 1013.1
20260508185000 55 337 3.0 3.0 0.00 0.14 0.14 65 1013.5
20260508184457 56 230 4.0 5.0 0.00 0.14 0.14 65 1013.5
20260508183954 55 114 3.0 5.0 0.00 0.14 0.14 63 1013.9
20260508183450 54 307 2.0 2.0 0.00 0.14 0.14 71 1013.5
20260508182945 53 228 2.0 2.0 0.00 0.14 0.14 67 1013.9
20260508182443 53 166 3.0 3.0 0.00 0.14 0.14 67 1013.9
20260508181944 53 129 3.0 5.0 0.00 0.14 0.14 71 1013.9
20260508181440 53 149 3.0 3.0 0.00 0.14 0.14 67 1013.9
20260508180938 52 229 2.0 2.0 0.00 0.14 0.14 71 1013.9
20260508180435 51 175 0.0 1.0 0.00 0.14 0.14 72 1013.9
20260508175931 52 146 1.0 2.0 0.00 0.14 0.14 74 1013.9
20260508175427 52 235 2.0 3.0 0.00 0.14 0.14 73 1013.9
20260508174926 53 232 4.0 6.0 0.00 0.14 0.14 68 1013.9
20260508174423 51 143 1.0 2.0 0.00 0.14 0.14 74 1013.9
20260508173919 50 121 1.0 1.0 0.00 0.14 0.14 75 1013.9
20260508173416 50 154 1.0 2.0 0.00 0.14 0.14 73 1013.9
20260508172912 50 173 2.0 3.0 0.00 0.14 0.14 75 1014.2
20260508172410 50 158 4.0 5.0 0.00 0.14 0.14 75 1013.9
20260508171906 50 185 4.0 5.0 0.00 0.14 0.14 73 1013.9
20260508171402 50 160 1.0 1.0 0.00 0.14 0.14 71 1013.9
20260508170859 51 181 3.0 5.0 0.00 0.14 0.14 74 1014.2
20260508170357 51 166 0.0 0.0 0.00 0.14 0.14 77 1013.9
20260508165853 50 179 1.0 2.0 0.00 0.14 0.14 78 1014.2
20260508165351 48 147 0.0 0.0 0.00 0.14 0.14 80 1014.2
20260508164846 48 144 1.0 2.0 0.00 0.14 0.14 80 1014.2
20260508164344 49 240 1.0 1.0 0.00 0.14 0.14 81 1014.2
20260508163841 49 166 3.0 5.0 0.00 0.14 0.14 82 1013.9
20260508163339 50 166 0.0 0.0 0.00 0.14 0.14 86 1014.5
20260508162834 50 190 0.0 0.0 0.00 0.14 0.14 90 1014.2
20260508162331 49 182 0.0 0.0 0.00 0.14 0.14 90 1014.5
20260508161828 48 216 2.0 3.0 0.00 0.14 0.14 92 1014.2
20260508161326 48 198 1.0 2.0 0.00 0.14 0.14 90 1014.2
20260508160823 49 187 1.0 2.0 0.00 0.14 0.14 97 1014.5
20260508160322 48 186 1.0 1.0 0.00 0.14 0.14 97 1014.5
20260508155818 46 178 0.0 0.0 0.00 0.14 0.14 98 1014.5
20260508155315 45 163 0.0 0.0 0.00 0.14 0.14 98 1014.5
20260508154812 44 293 0.0 0.0 0.00 0.14 0.14 98 1014.5
20260508154310 44 156 0.0 0.0 0.07 0.14 0.14 99 1014.5
20260508153806 43 206 0.0 1.0 0.07 0.14 0.14 98 1014.5
20260508153303 43 177 0.0 1.0 0.07 0.14 0.14 99 1014.5
20260508152759 43 260 3.0 5.0 0.05 0.13 0.13 98 1014.5
20260508152255 43 153 1.0 2.0 0.17 0.13 0.13 98 1014.5
20260508151752 43 174 0.0 0.0 0.19 0.12 0.12 97 1014.5
20260508151249 43 158 0.0 0.0 0.14 0.10 0.10 96 1014.5
20260508150745 43 172 0.0 0.0 0.12 0.08 0.08 95 1014.5
20260508150242 43 181 1.0 1.0 0.07 0.07 0.07 94 1014.9
20260508145738 44 191 0.0 1.0 0.05 0.06 0.06 94 1014.5
20260508145234 44 232 2.0 3.0 0.05 0.06 0.06 94 1014.2
20260508144731 44 156 0.0 1.0 0.00 0.05 0.05 93 1014.2
20260508144229 44 159 2.0 2.0 0.00 0.05 0.05 93 1014.5
20260508143726 44 208 1.0 1.0 0.00 0.05 0.05 94 1014.2
20260508143224 45 158 0.0 0.0 0.00 0.05 0.05 95 1014.2
20260508142720 44 183 1.0 1.0 0.00 0.05 0.05 95 1014.2
20260508142217 44 181 0.0 0.0 0.00 0.05 0.05 94 1014.2
20260508141713 44 154 0.0 0.0 0.00 0.05 0.05 94 1014.2
20260508141211 44 208 1.0 2.0 0.00 0.05 0.05 93 1013.9
20260508140708 44 120 1.0 2.0 0.00 0.05 0.05 93 1014.2
20260508140205 45 209 3.0 5.0 0.12 0.05 0.05 93 1013.9
20260508135701 45 168 0.0 0.0 0.19 0.05 0.05 93 1013.9
20260508135201 46 171 0.0 1.0 0.07 0.03 0.03 91 1013.9
20260508134658 45 160 0.0 0.0 0.00 0.02 0.02 89 1013.9
20260508134155 45 75 2.0 2.0 0.00 0.02 0.02 88 1013.9
20260508133652 46 151 0.0 0.0 0.00 0.02 0.02 90 1014.5
20260508133149 46 162 0.0 0.0 0.00 0.02 0.02 89 1014.2
20260508132647 46 180 0.0 0.0 0.00 0.02 0.02 88 1014.2
20260508132144 46 139 1.0 1.0 0.00 0.02 0.02 86 1013.9
20260508131640 46 175 0.0 0.0 0.00 0.02 0.02 87 1013.9
20260508131136 46 189 1.0 2.0 0.00 0.02 0.02 87 1013.9
20260508130633 46 149 0.0 0.0 0.00 0.02 0.02 86 1013.9
20260508130130 46 242 0.0 0.0 0.00 0.02 0.02 85 1013.9
20260508125625 47 210 1.0 1.0 0.00 0.02 0.02 85 1013.9
20260508125123 47 185 2.0 2.0 0.00 0.02 0.02 85 1013.9
20260508124621 48 308 4.0 5.0 0.00 0.02 0.02 87 1013.9
20260508124118 48 289 1.0 2.0 0.00 0.02 0.02 87 1013.5
20260508123616 47 162 0.0 0.0 0.00 0.02 0.02 88 1013.5
20260508123113 47 154 0.0 0.0 0.00 0.02 0.02 88 1013.1
20260508122609 47 172 0.0 0.0 0.00 0.02 0.02 88 1013.1
20260508122106 46 154 0.0 0.0 0.00 0.02 0.02 91 1013.1
20260508121605 46 172 0.0 1.0 0.00 0.02 0.02 91 1013.1
20260508121102 46 149 0.0 0.0 0.00 0.02 0.02 91 1013.5
20260508120559 46 332 0.0 1.0 0.00 0.02 0.02 92 1013.5
20260508120058 46 141 0.0 0.0 0.00 0.02 0.02 92 1013.1
20260508115555 45 159 0.0 0.0 0.00 0.02 0.02 93 1013.1
20260508115051 45 157 0.0 0.0 0.00 0.02 0.02 94 1013.1
20260508114548 44 150 1.0 2.0 0.00 0.02 0.02 94 1013.1
20260508114044 44 156 0.0 0.0 0.00 0.02 0.02 96 1013.1
20260508113542 43 155 0.0 0.0 0.00 0.02 0.02 97 1013.1
20260508113040 43 147 0.0 0.0 0.00 0.02 0.02 98 1013.5
20260508112536 42 147 0.0 0.0 0.00 0.02 0.02 99 1013.5
20260508112033 42 151 0.0 0.0 0.00 0.02 0.02 99 1013.5
20260508111530 41 160 0.0 0.0 0.00 0.02 0.02 99 1013.5
20260508111027 42 162 0.0 0.0 0.00 0.02 0.02 99 1013.9
20260508110525 41 173 0.0 0.0 0.00 0.02 0.02 99 1013.5
20260508110021 41 147 0.0 0.0 0.00 0.02 0.02 99 1013.5
20260508105516 40 155 0.0 0.0 0.00 0.02 0.02 99 1013.5
20260508105013 40 160 0.0 0.0 0.00 0.02 0.02 99 1013.5
20260508104511 40 161 0.0 0.0 0.00 0.02 0.02 99 1013.9
20260508104007 40 155 0.0 0.0 0.00 0.02 0.02 99 1013.5
20260508103504 40 154 0.0 0.0 0.00 0.02 0.02 99 1013.5
20260508103001 39 161 0.0 0.0 0.00 0.02 0.02 99 1013.5
20260508102459 39 158 0.0 0.0 0.00 0.02 0.02 99 1013.5
20260508101956 39 161 0.0 0.0 0.00 0.02 0.02 99 1013.5
20260508101454 39 152 0.0 0.0 0.00 0.02 0.02 99 1013.5
20260508100951 39 159 0.0 0.0 0.00 0.02 0.02 99 1013.9
20260508100450 39 161 0.0 0.0 0.00 0.02 0.02 99 1013.5
20260508095945 39 154 0.0 0.0 0.00 0.02 0.02 99 1013.1
20260508095443 38 163 0.0 0.0 0.00 0.02 0.02 99 1013.5
20260508094940 38 160 0.0 0.0 0.00 0.02 0.02 99 1013.5
20260508094436 38 159 0.0 0.0 0.00 0.02 0.02 99 1013.1
20260508093933 38 161 0.0 0.0 0.00 0.02 0.02 99 1013.5
20260508093431 37 159 0.0 0.0 0.00 0.02 0.02 99 1012.7
20260508092928 37 159 0.0 0.0 0.00 0.02 0.02 99 1013.1
20260508092426 38 159 0.0 0.0 0.00 0.02 0.02 99 1013.1
20260508091924 38 159 0.0 0.0 0.00 0.02 0.02 99 1013.1
20260508091421 39 159 0.0 0.0 0.00 0.02 0.02 99 1013.1
20260508090918 39 161 0.0 0.0 0.00 0.02 0.02 99 1013.1
20260508090417 38 158 0.0 0.0 0.00 0.02 0.02 99 1013.1
20260508085911 38 158 0.0 0.0 0.00 0.02 0.02 99 1013.1
20260508085409 38 158 0.0 0.0 0.00 0.02 0.02 99 1013.1
20260508084905 39 159 0.0 0.0 0.00 0.02 0.02 99 1013.1
20260508084402 39 161 0.0 0.0 0.00 0.02 0.02 99 1013.1
20260508083900 39 161 0.0 0.0 0.00 0.02 0.02 99 1013.1
20260508083357 40 162 0.0 0.0 0.00 0.02 0.02 99 1013.1
20260508082856 40 159 0.0 0.0 0.00 0.02 0.02 98 1013.1
20260508082354 40 158 0.0 0.0 0.00 0.02 0.02 98 1013.1
20260508081852 41 155 0.0 0.0 0.00 0.02 0.02 98 1012.7
20260508081348 41 158 0.0 0.0 0.00 0.02 0.02 97 1013.1
20260508080846 41 164 0.0 0.0 0.00 0.02 0.02 97 1012.7
20260508080343 41 160 0.0 0.0 0.00 0.02 0.02 97 1012.7
20260508075839 41 162 0.0 0.0 0.00 0.02 0.02 97 1013.1
20260508075336 41 166 0.0 0.0 0.00 0.02 0.02 97 1013.1
20260508074835 41 188 0.0 0.0 0.00 0.02 0.02 97 1013.1
20260508074331 41 155 0.0 0.0 0.00 0.02 0.02 97 1013.1
20260508073828 41 158 0.0 0.0 0.00 0.02 0.02 97 1013.1
20260508073326 42 178 0.0 0.0 0.00 0.02 0.02 97 1013.1
20260508072822 42 165 0.0 0.0 0.00 0.02 0.02 97 1013.5
20260508072319 42 167 0.0 1.0 0.00 0.02 0.02 97 1013.1
20260508071816 42 158 0.0 0.0 0.00 0.02 0.02 96 1013.1
20260508071315 42 150 0.0 0.0 0.00 0.02 0.02 96 1013.5
20260508070811 42 155 0.0 0.0 0.00 0.02 0.02 96 1013.1